DAL1112 KLAX-KMSY

Flight info

Callsign DAL1112
Flight time N/A
Altitude 39000
Route DOTSS2 CNERY DCT BLH DCT SALOM DCT EWM J4 INK DCT BWD DCT ACT J50 LFK DCT LSU AWDAD1
Aircraft B738/M-SDE2E3FGHIRWXY/LB1

Departure

Time N/A
Airport Los Angeles International Airport (KLAX)

Arrival

Time 2026-05-04 21:52
Airport Louis Armstrong New Orleans International Airport (KMSY)
Time Latitude Longitude Altitude Speed Heading
2026-05-04 19:37 32.91996 -110.68024 38910 ft 515 kts 110°
2026-05-04 19:38 32.91174 -110.63923 38908 ft 516 kts 110°
2026-05-04 19:38 32.89504 -110.55599 38904 ft 516 kts 110°
2026-05-04 19:39 32.87828 -110.47278 38893 ft 516 kts 110°
2026-05-04 19:39 32.86161 -110.39027 38905 ft 517 kts 110°
2026-05-04 19:40 32.84475 -110.30710 38915 ft 516 kts 110°
2026-05-04 19:40 32.82782 -110.22397 38898 ft 517 kts 110°
2026-05-04 19:41 32.81081 -110.14074 38903 ft 517 kts 110°
2026-05-04 19:41 32.79378 -110.05764 38908 ft 517 kts 111°
2026-05-04 19:42 32.77666 -109.97446 38908 ft 517 kts 110°
2026-05-04 19:42 32.75961 -109.89191 38934 ft 518 kts 110°
2026-05-04 19:43 32.74238 -109.80875 38920 ft 518 kts 110°
2026-05-04 19:43 32.72515 -109.72589 38966 ft 515 kts 110°
2026-05-04 19:44 32.70800 -109.64373 38969 ft 515 kts 110°
2026-05-04 19:44 32.69058 -109.56061 38944 ft 516 kts 110°
2026-05-04 19:45 32.67328 -109.47837 38929 ft 517 kts 110°
2026-05-04 19:45 32.65578 -109.39544 38892 ft 518 kts 110°
2026-05-04 19:46 32.63820 -109.31233 38863 ft 519 kts 110°
2026-05-04 19:46 32.62056 -109.22930 38860 ft 520 kts 110°
2026-05-04 19:47 32.60293 -109.14655 38855 ft 520 kts 110°
2026-05-04 19:47 32.58517 -109.06348 38859 ft 520 kts 110°
2026-05-04 19:48 32.56732 -108.98036 38886 ft 520 kts 110°
2026-05-04 19:48 32.55240 -108.91109 38921 ft 521 kts 110°
2026-05-04 19:49 32.53441 -108.82783 38962 ft 521 kts 110°
2026-05-04 19:49 32.51638 -108.74464 38997 ft 521 kts 110°
2026-05-04 19:50 32.49836 -108.66182 39011 ft 522 kts 110°
2026-05-04 19:50 32.48019 -108.57854 39006 ft 522 kts 110°
2026-05-04 19:51 32.46197 -108.49536 38976 ft 521 kts 110°
2026-05-04 19:51 32.44383 -108.41279 38951 ft 520 kts 110°
2026-05-04 19:52 32.42556 -108.32992 38971 ft 519 kts 110°
2026-05-04 19:52 32.40727 -108.24726 38976 ft 519 kts 110°
2026-05-04 19:53 32.38889 -108.16448 38975 ft 520 kts 110°
2026-05-04 19:53 32.37059 -108.08232 38947 ft 520 kts 110°
2026-05-04 19:54 32.35208 -107.99947 38949 ft 521 kts 110°
2026-05-04 19:54 32.33349 -107.91654 38999 ft 521 kts 110°
2026-05-04 19:55 32.31485 -107.83370 39047 ft 522 kts 110°
2026-05-04 19:55 32.29613 -107.75073 39066 ft 522 kts 110°
2026-05-04 19:56 32.27735 -107.66779 39067 ft 522 kts 110°
2026-05-04 19:56 32.25861 -107.58529 39043 ft 523 kts 110°
2026-05-04 19:57 32.23970 -107.50235 38992 ft 522 kts 110°
2026-05-04 19:57 32.22074 -107.41941 38939 ft 522 kts 110°
2026-05-04 19:58 32.20169 -107.33640 38877 ft 522 kts 110°
2026-05-04 19:58 32.18274 -107.25407 38905 ft 522 kts 110°
2026-05-04 19:59 32.16658 -107.18404 38945 ft 522 kts 110°
2026-05-04 19:59 32.14812 -107.10433 38965 ft 522 kts 110°
2026-05-04 20:00 32.12890 -107.02158 38995 ft 522 kts 110°
2026-05-04 20:00 32.10978 -106.93953 38992 ft 522 kts 110°
2026-05-04 20:01 32.09225 -106.86450 38979 ft 522 kts 110°
2026-05-04 20:01 32.07287 -106.78182 38976 ft 521 kts 110°
2026-05-04 20:02 32.05348 -106.69941 38994 ft 521 kts 110°
2026-05-04 20:02 32.03415 -106.61748 39008 ft 521 kts 110°
2026-05-04 20:03 32.01465 -106.53509 38981 ft 522 kts 110°
2026-05-04 20:03 31.99511 -106.45276 38977 ft 522 kts 110°
2026-05-04 20:04 31.97548 -106.37026 38998 ft 522 kts 110°
2026-05-04 20:04 31.95627 -106.28813 38989 ft 524 kts 106°
2026-05-04 20:04 31.95038 -106.24559 38979 ft 528 kts 95°
2026-05-04 20:05 31.94909 -106.20242 38986 ft 528 kts 92°
2026-05-04 20:05 31.94861 -106.11592 38946 ft 529 kts 91°
2026-05-04 20:06 31.94795 -106.02926 38908 ft 529 kts 91°
2026-05-04 20:06 31.94660 -105.94258 38866 ft 530 kts 92°
2026-05-04 20:07 31.94494 -105.85575 38868 ft 529 kts 92°
2026-05-04 20:07 31.94326 -105.76973 38864 ft 529 kts 92°
2026-05-04 20:08 31.94155 -105.68309 38851 ft 528 kts 92°
2026-05-04 20:08 31.93980 -105.59652 38853 ft 528 kts 92°
2026-05-04 20:09 31.93799 -105.51013 38832 ft 527 kts 92°
2026-05-04 20:09 31.93613 -105.42446 38827 ft 526 kts 92°
2026-05-04 20:10 31.93421 -105.33826 38828 ft 526 kts 92°
2026-05-04 20:10 31.93235 -105.25219 38821 ft 525 kts 92°
2026-05-04 20:11 31.93057 -105.16623 38828 ft 525 kts 91°
2026-05-04 20:11 31.92873 -105.08033 38829 ft 525 kts 91°
2026-05-04 20:12 31.92682 -104.99443 38834 ft 524 kts 91°
2026-05-04 20:12 31.92485 -104.90903 38851 ft 525 kts 92°
2026-05-04 20:13 31.92280 -104.82295 38829 ft 525 kts 91°
2026-05-04 20:13 31.92072 -104.73738 38853 ft 522 kts 92°
2026-05-04 20:14 31.91857 -104.65186 38852 ft 523 kts 91°
2026-05-04 20:14 31.91636 -104.56621 38845 ft 524 kts 91°
2026-05-04 20:15 31.91410 -104.48084 38842 ft 526 kts 91°
2026-05-04 20:15 31.91176 -104.39459 38841 ft 527 kts 91°
2026-05-04 20:16 31.90937 -104.30827 38838 ft 529 kts 91°
2026-05-04 20:16 31.90690 -104.22161 38836 ft 530 kts 91°
2026-05-04 20:17 31.90437 -104.13479 38831 ft 531 kts 91°
2026-05-04 20:17 31.90178 -104.04786 38817 ft 531 kts 91°
2026-05-04 20:18 31.89912 -103.96094 38821 ft 531 kts 91°
2026-05-04 20:18 31.89643 -103.87467 38820 ft 530 kts 92°
2026-05-04 20:19 31.89367 -103.78788 38814 ft 529 kts 91°
2026-05-04 20:19 31.89085 -103.70127 38814 ft 528 kts 92°
2026-05-04 20:20 31.88798 -103.61494 38814 ft 527 kts 92°
2026-05-04 20:20 31.88508 -103.52932 38813 ft 526 kts 92°
2026-05-04 20:21 31.88211 -103.44341 38810 ft 525 kts 92°
2026-05-04 20:21 31.87755 -103.31452 38815 ft 524 kts 91°
2026-05-04 20:22 31.87482 -103.22882 38822 ft 524 kts 89°
2026-05-04 20:22 31.87581 -103.14319 38819 ft 523 kts 86°
2026-05-04 20:23 31.87821 -103.05811 38817 ft 523 kts 86°
2026-05-04 20:23 31.88036 -102.97245 38818 ft 524 kts 86°
2026-05-04 20:24 31.88208 -102.88668 38818 ft 524 kts 87°
2026-05-04 20:24 31.88358 -102.80073 38829 ft 525 kts 87°
2026-05-04 20:25 31.88500 -102.71545 38851 ft 525 kts 87°
2026-05-04 20:25 31.88641 -102.62940 38890 ft 525 kts 87°
2026-05-04 20:26 31.88777 -102.54336 38922 ft 525 kts 87°
2026-05-04 20:26 31.88908 -102.45734 38947 ft 525 kts 86°
2026-05-04 20:27 31.89032 -102.37131 38945 ft 526 kts 86°
2026-05-04 20:27 31.89151 -102.28529 38945 ft 526 kts 86°
2026-05-04 20:28 31.89263 -102.19985 38926 ft 525 kts 86°
2026-05-04 20:28 31.89371 -102.11357 38929 ft 525 kts 86°
2026-05-04 20:29 31.89472 -102.02751 38899 ft 525 kts 86°
2026-05-04 20:29 31.89568 -101.94193 38874 ft 526 kts 86°
2026-05-04 20:30 31.89658 -101.85572 38848 ft 525 kts 86°
2026-05-04 20:30 31.89742 -101.76968 38823 ft 525 kts 86°
2026-05-04 20:31 31.89820 -101.68426 38811 ft 526 kts 86°
2026-05-04 20:31 31.89892 -101.59801 38812 ft 526 kts 86°
2026-05-04 20:32 31.89959 -101.51191 38819 ft 526 kts 86°
2026-05-04 20:32 31.90020 -101.42644 38818 ft 526 kts 86°
2026-05-04 20:33 31.90075 -101.34037 38803 ft 526 kts 86°
2026-05-04 20:33 31.90124 -101.25439 38798 ft 525 kts 86°
2026-05-04 20:34 31.90168 -101.16846 38799 ft 525 kts 86°
2026-05-04 20:34 31.90205 -101.08249 38794 ft 524 kts 86°
2026-05-04 20:35 31.90237 -100.99660 38799 ft 524 kts 86°
2026-05-04 20:35 31.90264 -100.91083 38793 ft 524 kts 86°
2026-05-04 20:36 31.90284 -100.82557 38791 ft 524 kts 86°
2026-05-04 20:36 31.90298 -100.73984 38795 ft 523 kts 87°
2026-05-04 20:37 31.90307 -100.65412 38801 ft 523 kts 86°
2026-05-04 20:37 31.90310 -100.57103 38797 ft 523 kts 86°
2026-05-04 20:38 31.90309 -100.49992 38802 ft 523 kts 86°
2026-05-04 20:38 31.90302 -100.41429 38808 ft 523 kts 86°
2026-05-04 20:39 31.90289 -100.32875 38804 ft 523 kts 86°
2026-05-04 20:39 31.90270 -100.24294 38812 ft 523 kts 86°
2026-05-04 20:40 31.90246 -100.15777 38815 ft 524 kts 86°
2026-05-04 20:40 31.90216 -100.07183 38817 ft 524 kts 87°
2026-05-04 20:41 31.90180 -99.98599 38821 ft 524 kts 87°
2026-05-04 20:41 31.90138 -99.89998 38822 ft 525 kts 87°
2026-05-04 20:42 31.90091 -99.81394 38825 ft 526 kts 87°
2026-05-04 20:42 31.90038 -99.72846 38849 ft 526 kts 87°
2026-05-04 20:43 31.89978 -99.64215 38865 ft 527 kts 87°
2026-05-04 20:43 31.89913 -99.55585 38884 ft 527 kts 87°
2026-05-04 20:44 31.89842 -99.46954 38898 ft 528 kts 87°
2026-05-04 20:44 31.89765 -99.38320 38897 ft 528 kts 87°
2026-05-04 20:45 31.89682 -99.29691 38896 ft 528 kts 87°
2026-05-04 20:45 31.89593 -99.21047 38883 ft 527 kts 87°
2026-05-04 20:46 31.89500 -99.12472 38860 ft 527 kts 87°
2026-05-04 20:46 31.89400 -99.03831 38866 ft 527 kts 87°
2026-05-04 20:47 31.89254 -98.95215 38869 ft 528 kts 91°
2026-05-04 20:47 31.88333 -98.86883 38874 ft 529 kts 97°
2026-05-04 20:48 31.87119 -98.78403 38861 ft 529 kts 98°
2026-05-04 20:48 31.85917 -98.69866 38896 ft 529 kts 97°
2026-05-04 20:49 31.84775 -98.61328 38895 ft 528 kts 97°
2026-05-04 20:49 31.83648 -98.52800 38896 ft 527 kts 97°
2026-05-04 20:50 31.82516 -98.44342 38887 ft 527 kts 97°
2026-05-04 20:50 31.81373 -98.35836 38877 ft 526 kts 97°
2026-05-04 20:51 31.80224 -98.27336 38894 ft 526 kts 97°
2026-05-04 20:51 31.79071 -98.18846 38902 ft 526 kts 97°
2026-05-04 20:52 31.77911 -98.10356 38903 ft 526 kts 97°
2026-05-04 20:52 31.76755 -98.01936 38896 ft 526 kts 97°
2026-05-04 20:53 31.75585 -97.93455 38892 ft 526 kts 97°
2026-05-04 20:53 31.74409 -97.84975 38880 ft 526 kts 97°
2026-05-04 20:54 31.73229 -97.76504 38878 ft 526 kts 97°
2026-05-04 20:54 31.72050 -97.68085 38882 ft 526 kts 97°
2026-05-04 20:55 31.70858 -97.59617 38890 ft 526 kts 97°
2026-05-04 20:55 31.69661 -97.51148 38907 ft 526 kts 97°
2026-05-04 20:56 31.68456 -97.42671 38919 ft 526 kts 97°
2026-05-04 20:56 31.67247 -97.34200 38932 ft 527 kts 97°
2026-05-04 20:57 31.66036 -97.25783 38932 ft 527 kts 98°
2026-05-04 20:57 31.64546 -97.17354 38908 ft 527 kts 101°
2026-05-04 20:58 31.62902 -97.08961 38915 ft 528 kts 101°
2026-05-04 20:58 31.61288 -97.00564 38916 ft 528 kts 101°
2026-05-04 20:59 31.59718 -96.92217 38916 ft 528 kts 100°
2026-05-04 20:59 31.58141 -96.83812 38916 ft 528 kts 101°
2026-05-04 21:00 31.56553 -96.75404 38934 ft 528 kts 101°
2026-05-04 21:00 31.54957 -96.67000 38936 ft 528 kts 101°
2026-05-04 21:01 31.53368 -96.58661 38940 ft 528 kts 101°
2026-05-04 21:01 31.51763 -96.50264 38944 ft 528 kts 101°
2026-05-04 21:02 31.50158 -96.41882 38943 ft 527 kts 101°
2026-05-04 21:02 31.48550 -96.33505 38928 ft 527 kts 101°
2026-05-04 21:03 31.46942 -96.25134 38936 ft 527 kts 101°
2026-05-04 21:03 31.45333 -96.16819 38941 ft 527 kts 101°
2026-05-04 21:04 31.43709 -96.08457 38946 ft 527 kts 101°
2026-05-04 21:04 31.42080 -96.00096 38951 ft 527 kts 100°
2026-05-04 21:05 31.40448 -95.91743 38955 ft 527 kts 100°
2026-05-04 21:05 31.38818 -95.83433 38951 ft 527 kts 101°
2026-05-04 21:06 31.37172 -95.75072 38952 ft 527 kts 101°
2026-05-04 21:06 31.35522 -95.66717 38952 ft 527 kts 101°
2026-05-04 21:07 31.33858 -95.58364 38946 ft 527 kts 101°
2026-05-04 21:07 31.32193 -95.50074 38939 ft 527 kts 101°
2026-05-04 21:08 31.30512 -95.41723 38947 ft 527 kts 101°
2026-05-04 21:08 31.28830 -95.33388 38946 ft 527 kts 101°
2026-05-04 21:09 31.27143 -95.25053 38953 ft 527 kts 101°
2026-05-04 21:09 31.25451 -95.16731 38950 ft 526 kts 101°
2026-05-04 21:10 31.23769 -95.08478 38960 ft 526 kts 101°
2026-05-04 21:10 31.22069 -95.00171 38962 ft 525 kts 101°
2026-05-04 21:11 31.20366 -94.91877 38965 ft 525 kts 101°
2026-05-04 21:11 31.18659 -94.83590 38955 ft 525 kts 101°
2026-05-04 21:12 31.16960 -94.75367 38961 ft 524 kts 101°
2026-05-04 21:12 31.15289 -94.67091 38956 ft 523 kts 99°
2026-05-04 21:13 31.13769 -94.58788 38971 ft 523 kts 98°
2026-05-04 21:13 31.12275 -94.50491 38966 ft 523 kts 98°
2026-05-04 21:14 31.10756 -94.42202 38974 ft 522 kts 98°
2026-05-04 21:14 31.09226 -94.33974 38974 ft 522 kts 98°
2026-05-04 21:15 31.07677 -94.25696 38982 ft 522 kts 99°
2026-05-04 21:15 31.06125 -94.17423 38979 ft 522 kts 99°
2026-05-04 21:16 31.04567 -94.09149 38986 ft 522 kts 99°
2026-05-04 21:16 31.03015 -94.00931 38991 ft 523 kts 99°
2026-05-04 21:17 31.01446 -93.92656 38985 ft 523 kts 99°
2026-05-04 21:17 30.99871 -93.84377 38983 ft 523 kts 99°
2026-05-04 21:18 30.98289 -93.76096 38986 ft 523 kts 99°
2026-05-04 21:18 30.96701 -93.67814 38988 ft 523 kts 99°
2026-05-04 21:19 30.95120 -93.59599 39001 ft 524 kts 99°
2026-05-04 21:19 30.93523 -93.51324 39003 ft 524 kts 99°
2026-05-04 21:20 30.91920 -93.43056 39006 ft 524 kts 99°
2026-05-04 21:20 30.90306 -93.34752 38562 ft 528 kts 99°
2026-05-04 21:21 30.89495 -93.30594 38016 ft 526 kts 99°
2026-05-04 21:21 30.88695 -93.26498 37498 ft 525 kts 99°
2026-05-04 21:21 30.87883 -93.22354 36979 ft 524 kts 99°
2026-05-04 21:21 30.87072 -93.18222 36457 ft 524 kts 99°
2026-05-04 21:22 30.86260 -93.14090 35952 ft 524 kts 98°
2026-05-04 21:22 30.85449 -93.09969 35528 ft 521 kts 98°
2026-05-04 21:22 30.84640 -93.05870 35113 ft 518 kts 98°
2026-05-04 21:22 30.83836 -93.01796 34708 ft 516 kts 98°
2026-05-04 21:23 30.83033 -92.97739 34292 ft 514 kts 98°
2026-05-04 21:23 30.82241 -92.93743 33843 ft 513 kts 98°
2026-05-04 21:23 30.81440 -92.89709 33384 ft 510 kts 98°
2026-05-04 21:23 30.80643 -92.85702 32963 ft 507 kts 98°
2026-05-04 21:24 30.79849 -92.81715 32542 ft 504 kts 98°
2026-05-04 21:24 30.79057 -92.77750 32122 ft 502 kts 99°
2026-05-04 21:24 30.78271 -92.73816 31708 ft 499 kts 99°
2026-05-04 21:24 30.77485 -92.69893 31311 ft 496 kts 99°
2026-05-04 21:25 30.76705 -92.66000 30919 ft 493 kts 99°
2026-05-04 21:25 30.75927 -92.62127 30515 ft 491 kts 99°
2026-05-04 21:25 30.75162 -92.58324 30105 ft 489 kts 99°
2026-05-04 21:25 30.74387 -92.54477 29644 ft 486 kts 99°
2026-05-04 21:26 30.73618 -92.50669 29205 ft 483 kts 99°
2026-05-04 21:26 30.72853 -92.46886 28778 ft 479 kts 99°
2026-05-04 21:26 30.72094 -92.43139 28362 ft 475 kts 99°
2026-05-04 21:26 30.71340 -92.39420 27946 ft 470 kts 99°
2026-05-04 21:27 30.70592 -92.35737 27540 ft 466 kts 99°
2026-05-04 21:27 30.69850 -92.32085 27134 ft 462 kts 100°
2026-05-04 21:27 30.69124 -92.28519 26734 ft 459 kts 100°
2026-05-04 21:27 30.68390 -92.24926 26335 ft 455 kts 100°
2026-05-04 21:28 30.67662 -92.21364 25938 ft 452 kts 101°
2026-05-04 21:28 30.66939 -92.17829 25539 ft 448 kts 101°
2026-05-04 21:28 30.66221 -92.14323 25143 ft 445 kts 101°
2026-05-04 21:28 30.65506 -92.10837 24747 ft 442 kts 101°
2026-05-04 21:29 30.64795 -92.07381 24350 ft 439 kts 101°
2026-05-04 21:29 30.64089 -92.03946 23948 ft 436 kts 101°
2026-05-04 21:29 30.63386 -92.00536 23539 ft 433 kts 102°
2026-05-04 21:29 30.62696 -91.97190 23094 ft 430 kts 102°
2026-05-04 21:30 30.62002 -91.93838 22675 ft 425 kts 102°
2026-05-04 21:30 30.61314 -91.90514 22275 ft 421 kts 102°
2026-05-04 21:30 30.60633 -91.87227 21882 ft 417 kts 102°
2026-05-04 21:30 30.59958 -91.83973 21503 ft 413 kts 102°
2026-05-04 21:31 30.58624 -91.77559 20753 ft 405 kts 102°
2026-05-04 21:31 30.57965 -91.74397 20378 ft 401 kts 102°
2026-05-04 21:31 30.57320 -91.71302 20013 ft 398 kts 103°
2026-05-04 21:32 30.56671 -91.68195 19644 ft 395 kts 103°
2026-05-04 21:32 30.56047 -91.65214 19293 ft 392 kts 103°
2026-05-04 21:32 30.55407 -91.62153 18929 ft 389 kts 103°
2026-05-04 21:32 30.54768 -91.59108 18573 ft 387 kts 103°
2026-05-04 21:33 30.54135 -91.56091 18193 ft 384 kts 103°
2026-05-04 21:33 30.53505 -91.53092 17784 ft 381 kts 103°
2026-05-04 21:33 30.52878 -91.50113 17377 ft 379 kts 103°
2026-05-04 21:33 30.52265 -91.47202 17012 ft 376 kts 103°
2026-05-04 21:34 30.51649 -91.44281 16640 ft 368 kts 103°
2026-05-04 21:34 30.51048 -91.41440 16294 ft 357 kts 103°
2026-05-04 21:34 30.50467 -91.38687 15985 ft 347 kts 103°
2026-05-04 21:34 30.49898 -91.35999 15654 ft 338 kts 103°
2026-05-04 21:35 30.49345 -91.33388 15347 ft 330 kts 103°
2026-05-04 21:35 30.48766 -91.30844 15030 ft 324 kts 111°
2026-05-04 21:35 30.47627 -91.28625 14749 ft 319 kts 136°
2026-05-04 21:35 30.45973 -91.26915 14566 ft 329 kts 144°
2026-05-04 21:36 30.44163 -91.25237 14341 ft 336 kts 145°
2026-05-04 21:36 30.42315 -91.23556 14114 ft 338 kts 145°
2026-05-04 21:36 30.40477 -91.21880 13882 ft 335 kts 145°
2026-05-04 21:36 30.38659 -91.20212 13624 ft 332 kts 144°
2026-05-04 21:37 30.36855 -91.18549 13362 ft 330 kts 144°
2026-05-04 21:37 30.35066 -91.16894 13104 ft 328 kts 144°
2026-05-04 21:37 30.33318 -91.15274 12863 ft 324 kts 144°
2026-05-04 21:37 30.31591 -91.13671 12581 ft 313 kts 144°
2026-05-04 21:38 30.29911 -91.12111 12261 ft 305 kts 144°
2026-05-04 21:38 30.28274 -91.10592 11946 ft 299 kts 144°
2026-05-04 21:38 30.26654 -91.09091 11638 ft 298 kts 144°
2026-05-04 21:38 30.25034 -91.07591 11340 ft 300 kts 144°
2026-05-04 21:39 30.23384 -91.06066 11060 ft 307 kts 144°
2026-05-04 21:39 30.21718 -91.04520 11007 ft 303 kts 143°
2026-05-04 21:39 30.20105 -91.03024 10968 ft 289 kts 144°
2026-05-04 21:39 30.18609 -91.01637 10952 ft 270 kts 144°
2026-05-04 21:40 30.17190 -91.00324 10923 ft 254 kts 145°
2026-05-04 21:40 30.15782 -90.99026 10271 ft 268 kts 144°
2026-05-04 21:40 30.14265 -90.97631 9417 ft 287 kts 144°
2026-05-04 21:40 30.12743 -90.96194 9083 ft 281 kts 137°
2026-05-04 21:41 30.11698 -90.94320 8788 ft 276 kts 110°
2026-05-04 21:41 30.11331 -90.92184 8563 ft 270 kts 96°
2026-05-04 21:41 30.11164 -90.90021 8312 ft 272 kts 95°
2026-05-04 21:41 30.11018 -90.87849 8032 ft 278 kts 95°
2026-05-04 21:42 30.10867 -90.85638 7708 ft 273 kts 95°
2026-05-04 21:42 30.10710 -90.83477 7410 ft 266 kts 96°
2026-05-04 21:42 30.10551 -90.81375 7134 ft 260 kts 96°
2026-05-04 21:42 30.10393 -90.79325 6864 ft 253 kts 96°
2026-05-04 21:43 30.10236 -90.77323 6595 ft 248 kts 97°
2026-05-04 21:43 30.10080 -90.75356 6342 ft 244 kts 97°
2026-05-04 21:43 30.09926 -90.73421 6070 ft 239 kts 97°
2026-05-04 21:43 30.09775 -90.71536 5850 ft 233 kts 97°
2026-05-04 21:44 30.09601 -90.69724 5601 ft 227 kts 103°
2026-05-04 21:44 30.09242 -90.67981 5361 ft 221 kts 108°
2026-05-04 21:44 30.08835 -90.66293 5131 ft 215 kts 108°
2026-05-04 21:44 30.08433 -90.64645 4903 ft 212 kts 108°
2026-05-04 21:45 30.08035 -90.63004 4671 ft 212 kts 108°
2026-05-04 21:45 30.07642 -90.61375 4483 ft 208 kts 108°
2026-05-04 21:45 30.07260 -90.59768 4411 ft 209 kts 108°
2026-05-04 21:45 30.06862 -90.58140 4291 ft 211 kts 109°
2026-05-04 21:46 30.06470 -90.56510 4204 ft 216 kts 108°
2026-05-04 21:46 30.06087 -90.54837 4137 ft 214 kts 108°
2026-05-04 21:46 30.05705 -90.53213 4049 ft 213 kts 109°
2026-05-04 21:46 30.05305 -90.51563 3811 ft 212 kts 109°
2026-05-04 21:47 30.04920 -90.49951 3563 ft 202 kts 109°
2026-05-04 21:47 30.04552 -90.48427 3334 ft 192 kts 107°
2026-05-04 21:47 30.04207 -90.46971 3097 ft 182 kts 109°
2026-05-04 21:47 30.03869 -90.45600 2849 ft 172 kts 109°
2026-05-04 21:48 30.03557 -90.44320 2643 ft 164 kts 109°
2026-05-04 21:48 30.03250 -90.43058 2441 ft 164 kts 109°
2026-05-04 21:48 30.02942 -90.41788 2264 ft 165 kts 110°
2026-05-04 21:48 30.02636 -90.40518 2068 ft 162 kts 109°
2026-05-04 21:49 30.02335 -90.39287 1876 ft 159 kts 110°
2026-05-04 21:49 30.02045 -90.38077 1686 ft 155 kts 110°
2026-05-04 21:49 30.01759 -90.36885 1459 ft 152 kts 110°
2026-05-04 21:49 30.01477 -90.35722 1297 ft 150 kts 109°
2026-05-04 21:50 30.01198 -90.34564 1123 ft 150 kts 109°
2026-05-04 21:50 30.00932 -90.33453 939 ft 140 kts 109°
2026-05-04 21:50 30.00674 -90.32378 757 ft 136 kts 111°
2026-05-04 21:50 30.00414 -90.31310 565 ft 139 kts 109°
2026-05-04 21:51 30.00162 -90.30250 385 ft 136 kts 110°
2026-05-04 21:51 29.99915 -90.29194 245 ft 137 kts 109°
2026-05-04 21:51 29.99666 -90.28138 31 ft 134 kts 111°
2026-05-04 21:51 29.99438 -90.27259 11 ft 85 kts 104°
2026-05-04 21:52 29.99332 -90.26807 15 ft 48 kts 104°
2026-05-04 21:52 29.99280 -90.26590 13 ft 13 kts 106°
2026-05-04 21:52 29.99296 -90.26491 14 ft 13 kts 44°
2026-05-04 21:52 29.99378 -90.26452 11 ft 6 kts 16°
2026-05-04 21:53 29.99393 -90.26447 11 ft 3 kts 16°
2026-05-04 21:53 29.99416 -90.26435 11 ft 6 kts 30°
2026-05-04 21:53 29.99449 -90.26350 11 ft 18 kts 95°
2026-05-04 21:53 29.99410 -90.26175 10 ft 25 kts 104°
2026-05-04 21:54 29.99362 -90.25974 7 ft 26 kts 106°
2026-05-04 21:54 29.99317 -90.25787 9 ft 4 kts 106°
2026-05-04 21:54 29.99311 -90.25765 8 ft 3 kts 106°
2026-05-04 21:54 29.99305 -90.25743 8 ft 3 kts 106°
2026-05-04 21:55 29.99296 -90.25709 8 ft 8 kts 110°
2026-05-04 21:55 29.99245 -90.25632 8 ft 17 kts 149°
2026-05-04 21:55 29.99119 -90.25640 9 ft 21 kts 198°
2026-05-04 21:55 29.98970 -90.25689 14 ft 21 kts 192°
2026-05-04 21:56 29.98955 -90.25693 14 ft 0 kts 193°
2026-05-04 21:56 29.98924 -90.25701 14 ft 13 kts 192°
2026-05-04 21:56 29.98845 -90.25698 14 ft 5 kts 161°
2026-05-04 21:56 29.98806 -90.25680 13 ft 7 kts 156°
2026-05-04 21:57 29.98795 -90.25674 13 ft 0 kts 156°